User: anonymous   Login
Location: *
(10.4782°N, 67.2163°W)
Time: 03:05:58
(UTC+00:00)
Language:

Cosmos 2360 Rocket - Orbit

View from above orbital plane
View from above orbital plane
View from above satellite
View from above satellite

Ground track
Ground track

The orbit data is extracted from the following two-line orbital elements,

1 25407U 98045B   24194.85369380 -.00000194  00000-0 -73863-4 0  9993
2 25407  71.0121  13.3865 0009289 237.0348 122.9882 14.16013458341747
Epoch (UTC): 12 July 2024 20:29:19
Eccentricity: 0.0009289
inclination: 71.0121°
perigee height: 832 km
apogee height: 845 km
right ascension of ascending node: 13.3865°
argument of perigee: 237.0348°
revolutions per day: 14.16013458
mean anomaly at epoch: 122.9882°
orbit number at epoch: 34174

The dashed part of the orbit path shows where the satellite is in the earth's shadow,  

DLR